Regional Weather Roundup
Issued by NWS Little Rock, AR

Home | Current Version | Previous Version | Text Only | Print | Product List | Glossary Off
Versions: 1 2 3 4 5 6 7 8 9 10 11 12 13 14 15 16 17 18 19 20 21 22 23 24 25 26 27 28 29 30 31 32 33 34 35 36 37 38 39 40 41 42 43 44 45 46 47 48 49 50

000
ASUS44 KLZK 212305
RWRLZK

WEATHER ROUNDUP FOR ARKANSAS
NATIONAL WEATHER SERVICE LITTLE ROCK AR
600 PM CDT THU AUG 21 2014

NOTE: "FAIR" INDICATES FEW OR NO CLOUDS BELOW 12,000 FEET WITH NO
SIGNIFICANT WEATHER AND/OR OBSTRUCTIONS TO VISIBILITY.

ARZ001-003-010-029-220000-
NORTHWEST ARKANSAS

CITY           SKY/WX    TMP DP  RH WIND       PRES   REMARKS
FAYETTEVILLE   SUNNY     88  69  53 S14       30.01S HX  92
FORT SMITH     SUNNY     92  71  50 S8        29.96F HX  98
HARRISON       SUNNY     87  69  54 S9        30.02S HX  91
BENTONVILLE    SUNNY     90  70  51 SW12G21   30.02S HX  95
ROGERS         MOSUNNY   90  66  45 S13G20    30.01S HX  92
SILOAM SPGS    SUNNY     90  70  51 S15       30.01S HX  95
HIGHFILL       SUNNY     89  69  51 S15       30.00S HX  93
SPRINGDALE     MOSUNNY   90  70  51 SW12G23   30.02F HX  95
$$

ARZ004-005-016-220000-
NORTH CENTRAL ARKANSAS

CITY           SKY/WX    TMP DP  RH WIND       PRES   REMARKS
BATESVILLE     SUNNY     93  70  46 S8        29.99S HX  99
FLIPPIN        SUNNY     93  63  36 S9        29.99S HX  94
MTN HOME       SUNNY     93  63  36 SW7       29.98F HX  94
$$

ARZ040-041-220000-
WEST CENTRAL ARKANSAS

CITY           SKY/WX    TMP DP  RH WIND       PRES   REMARKS
MENA           SUNNY     90  75  62 CALM      30.04S HX 100
MOUNT IDA      SUNNY     87  72  60 VRB5      30.02S HX  93
$$

ARZ009-017-025-026-028-220000-
NORTHEAST ARKANSAS

CITY           SKY/WX    TMP DP  RH WIND       PRES   REMARKS
CORNING        LGT RAIN  91  73  55 S14       29.97F HX 100
JONESBORO      MOSUNNY   91  72  53 S15       29.99F HX  98
NEWPORT        SUNNY     92  74  55 S12       30.00F HX 101
WALNUT RIDGE   MOSUNNY   91  70  49 S15       29.96F HX  97
BLYTHEVILLE    SUNNY     90  76  63 SW9       30.00F HX 101
$$

ARZ022-023-033-042-044-220000-
CENTRAL ARKANSAS

CITY           SKY/WX    TMP DP  RH WIND       PRES   REMARKS
LITTLE ROCK    MOSUNNY   90  71  53 S10       30.02S HX  96
N LITTLE ROCK  MOSUNNY   89  74  60 SW12      30.02S HX  98
JACKSONVILLE   SUNNY     90  74  59 S9        30.02S HX  99
SEARCY           N/A     91  73  55 CALM        N/A  HX  99
HOT SPRINGS    SUNNY     89  72  56 VRB7      30.04S HX  96
RUSSELLVILLE   SUNNY     91  72  53 VRB7      30.00S HX  98
CLINTON        FAIR      95  68  41 S8        29.99S HAZE    HX  99
$$

ARZ036-220000-
EAST ARKANSAS

CITY           SKY/WX    TMP DP  RH WIND       PRES   REMARKS
WEST MEMPHIS   SUNNY     91  75  59 S8        30.01F HX 101
$$

ARZ050-053-066-070-073-220000-
SOUTHWEST ARKANSAS

CITY           SKY/WX    TMP DP  RH WIND       PRES   REMARKS
ARKADELPHIA    FAIR      92  76  59 S7        30.03S HX 104
CAMDEN         SUNNY     91  72  52 S7        30.04R HX  98
TEXARKANA      SUNNY     93  72  50 S9        30.02R HX 101
EL DORADO      SUNNY     90  73  57 SE7       30.05S HX  98
DE QUEEN       SUNNY     91  75  59 SE8       29.98F HX 101
$$

ARZ056-057-069-220000-
SOUTHEAST ARKANSAS

CITY           SKY/WX    TMP DP  RH WIND       PRES   REMARKS
PINE BLUFF     SUNNY     91  72  53 S8        30.04R HX  98
STUTTGART      SUNNY     91  73  55 S9        30.04S HX 100
MONTICELLO     SUNNY     92  73  53 S7        30.05R HX 100

$$




USA.gov is the U.S. government's official web portal to all federal, state and local government web resources and services.